Regional Weather Roundup
Issued by NWS Kansas City/Pleasant Hill, MO

Home | Current Version | Previous Version | Graphics & Text | Print | Product List | Glossary Off
Versions: 1 2 3 4 5 6 7 8 9 10 11 12 13 14 15 16 17 18 19 20 21 22 23 24 25 26 27 28 29 30 31 32 33 34 35 36 37 38 39 40 41 42 43 44 45 46 47 48 49 50

000
ASUS43 KEAX 292110
RWREAX

WEATHER ROUNDUP FOR EASTERN KANSAS AND NORTHWEST MISSOURI
NATIONAL WEATHER SERVICE KANSAS CITY/PLEASANT HILL MO
400 PM CDT WED MAR 29 2017

KSZ040-057-103>105-MOZ028-029-037-043-292200-
...KANSAS CITY METROPOLITAN AREA...

CITY           SKY/WX    TMP DP  RH WIND       PRES   REMARKS
K.C. INTL      CLOUDY    55  52  89 E20G29    29.69F
K.C. DOWNTOWN  CLOUDY    59  54  83 E16       29.67F
LEES SUMMIT    CLOUDY    60  56  86 E15       29.68F
OLATHE - IXD   PTSUNNY   63  57  81 E16G23    29.63F
OLATHE - OJC   PTSUNNY   63  58  83 E10G24    29.64F
LAWRENCE       CLOUDY    58  55  90 NE15      29.65F

$$

MOZ001>008-011>017-020>025-030>033-038>040-044>046-053-054-292200-
...NORTHERN AND CENTRAL MISSOURI...

CITY           SKY/WX    TMP DP  RH WIND       PRES   REMARKS
ST. JOSEPH     CLOUDY    52  50  93 E14G20    29.72F
MOSBY          CLOUDY    54  50  87 E10       29.73F
WARRENSBURG    CLOUDY    61  55  82 E14       29.69F
WHITEMAN AFB   CLOUDY    61  61 100 E9        29.70S
CLINTON        CLOUDY    66  59  77 SE3       29.69S
SEDALIA        CLOUDY    62  56  80 E14       29.73S
WARSAW         NOT AVBL
CHILLICOTHE      N/A     53  50  89 E12G23    29.79R
KIRKSVILLE     CLOUDY    51  50  96 E13G23    29.82S

$$

MOZ041-047>049-056>058-063>065-088>090-097-292200-
...EASTERN AND SOUTHERN MISSOURI...

CITY           SKY/WX    TMP DP  RH WIND       PRES   REMARKS
ST. LOUIS INTL CLOUDY    64  53  67 SE21G28   29.86F
SPIRIT OF STL  CLOUDY    65  55  70 E15G24    29.84F
COLUMBIA       PTSUNNY   60  54  80 E15G25    29.77S
JEFFERSON CITY MOSUNNY   68  55  63 E15       29.75F
ROLLA          CLOUDY    70  56  61 SE21G29   29.75F
SPRINGFIELD    CLOUDY    71  59  65 S17G24    29.70F
BRANSON        CLOUDY    72  55  56 S14G21    29.76S
JOPLIN         PTSUNNY   75  56  51 S23G32    29.65F
WEST PLAINS    CLOUDY    70  60  70 SE13G25   29.80S

$$

IAZ060-094-KSZ022-034>040-054-083-096-NEZ052-066-093-292200-
...KANSAS...SOUTHEAST NEBRASKA AND IOWA...

CITY           SKY/WX    TMP DP  RH WIND       PRES   REMARKS
TOPEKA         CLOUDY    57  56  96 NE8       29.66R
MANHATTAN      CLOUDY    51  51 100 NE22G29   29.64F
EMPORIA        MOSUNNY   67  57  70 S22G28    29.60S
CHANUTE        PTSUNNY   69  55  60 SW25      29.63R
WICHITA        CLOUDY    59  53  80 S15       29.58S
OMAHA          RAIN      43  38  82 N17       29.89F
LINCOLN        LGT RAIN  44  41  89 NE23G29   29.85F FOG
FALLS CITY     LGT RAIN  47  46  97 NE12      29.74S FOG
LAMONI         CLOUDY    49  47  93 E10       29.81R
DES MOINES     LGT RAIN  46  43  89 E20G28    29.89S FOG

$$




USA.gov is the U.S. government's official web portal to all federal, state and local government web resources and services.